Regional Weather Roundup
Issued by NWS

Home | Current Version | Previous Version | Graphics & Text | Print | Product List | Glossary On
Versions: 1 2 3 4 5 6 7 8 9 10 11 12 13 14 15 16 17 18 19 20 21 22 23 24 25 26 27 28 29 30 31 32 33 34 35 36 37 38 39 40 41 42 43 44 45 46 47 48 49 50
000
ASUS43 KMKX 251111
RWRWI

WISCONSIN REGIONAL WEATHER ROUNDUP
NATIONAL WEATHER SERVICE MILWAUKEE/SULLIVAN WI
600 AM CDT MON SEP 25 2017

NOTE: "FAIR" INDICATES FEW OR NO CLOUDS BELOW 12,000 FEET WITH NO
SIGNIFICANT WEATHER AND/OR OBSTRUCTIONS TO VISIBILITY.

WIZ001-002-006>008-014>016-023>028-251200-
NORTHWEST WISCONSIN

CITY           SKY/WX    TMP DP  RH WIND       PRES   REMARKS
SUPERIOR ARPT  CLOUDY    59  57  92 NW6       29.96R
ASHLAND        CLOUDY    68  66  93 W6        29.93R
HAYWARD        LGT RAIN  67  65  93 CALM      29.96R
SIREN          LGT RAIN  61  60  97 NW6       29.97R
CUMBERLAND     RAIN      64  63  94 NW3       29.96S
RICE LAKE      LGT RAIN  67  66  95 CALM      29.97S
CHETEK         CLOUDY    67  66  96 CALM      29.96R
LADYSMITH      MOCLDY    64  62  93 CALM      29.98R
EAU CLAIRE     PTCLDY    63  62  97 CALM      29.94R
MENOMONIE      CLOUDY    67  65  93 CALM      29.95S
NEW RICHMOND   HVY RAIN  65  64  98 NW7       29.96F
OSCEOLA        CLOUDY    63  63 100 W5        30.01R
$$

WIZ003>005-009-010-017-018-251200-
NORTH CENTRAL WISCONSIN

CITY           SKY/WX    TMP DP  RH WIND       PRES   REMARKS
MANITOWISH WTR NOT AVBL
ARBOR VITAE    CLEAR     64  60  88 CALM      29.97R
WOODRUFF       CLEAR     64  60  88 CALM      29.97R
RHINELANDER    CLEAR     64  60  87 CALM      29.99S
EAGLE RIVER    CLEAR     59  58  97 CALM      29.97S
LAND O LAKES   CLEAR     62  58  90 CALM      29.99S
PHILLIPS       CLOUDY    62  62 100 CALM      29.96S
TOMAHAWK       CLEAR     56  55  95 CALM      29.98S FOG
MEDFORD        CLEAR     59  58  96 CALM      29.97S
MERRILL        CLEAR     57  57 100 NE3       29.98S
$$

WIZ029-030-035-036-043>047-251200-
CENTRAL WISCONSIN

CITY           SKY/WX    TMP DP  RH WIND       PRES   REMARKS
WAUSAU         CLEAR     62  60  93 E5        29.96S
MOSINEE        CLEAR     63  59  88 CALM      29.99S
MARSHFIELD     CLEAR     61  57  87 S3        29.97R
STEVENS POINT  MOCLDY    61  60  98 CALM      29.98S
WAUPACA        CLEAR     64  64  98 CALM      29.98S FOG
WAUTOMA        CLEAR     59  58  96 CALM      29.99R
WISC RAPIDS    MOCLDY    66  61  84 S3        29.98R
CAMP DOUGLAS   CLEAR     62  60  94 CALM      29.96R
$$

WIZ011>013-019>022-031-037>040-048>050-251200-
NORTHEAST WISCONSIN

CITY           SKY/WX    TMP DP  RH WIND       PRES   REMARKS
ANTIGO         CLOUDY    63  60  89 CALM      30.00R
SHAWANO        CLEAR     67  61  83 CALM      29.97S
OCONTO         PTCLDY    60  58  95 CALM      29.97R
STURGEON BAY   PTCLDY    69  61  75 S9        29.98S
GREEN BAY      MOCLDY    67  62  84 S3        29.98R
MANITOWOC      CLEAR     61  60  97 CALM      30.00R FOG
APPLETON       PTCLDY    66  57  72 CALM      29.97S
CLINTONVILLE   CLEAR     61  59  94 CALM      29.98R
OSHKOSH        CLEAR     66  61  84 S9        29.98R
$$

WIZ032>034-041-042-053>061-251200-
SOUTHWEST WISCONSIN

CITY           SKY/WX    TMP DP  RH WIND       PRES   REMARKS
LA CROSSE      MOCLDY    68  64  87 CALM      29.94R
SPARTA         CLEAR     59  58  95 CALM      29.96R
VIROQUA        CLEAR     64  62  94 CALM      29.97S
BOSCOBEL       FOG       60  59  96 CALM      29.96R VSB 1/2
PRAIRIE DU CHI CLEAR     65  62  89 SE3       29.95R
PLATTEVILLE    CLEAR     67  63  85 SE7       29.98S
$$

WIZ056-057-062-063-064-067-068-251200-
SOUTH CENTRAL WISCONSIN

CITY           SKY/WX    TMP DP  RH WIND       PRES   REMARKS
REEDSBURG      CLEAR     65  62  90 CALM      29.97R
BARABOO/DELLS  CLEAR     64  58  80 S3        29.97S
LONE ROCK      CLEAR     60  59  96 CALM      29.97R FOG
MINERAL POINT  CLEAR     66  63  88 SE8       29.98S
MADISON        CLEAR     64  61  90 CALM      29.98S
MIDDLETON      CLEAR     62  60  94 CALM      29.99S
WATERTOWN      MOCLDY    63  63 100 CALM      29.99S
MONROE         CLEAR     66  57  72 S7        29.99R
JANESVILLE     PTCLDY    64  63  94 E3        29.98S
$$

WIZ051-052-058>065-066-070>072-251200-
SOUTHEAST WISCONSIN

CITY           SKY/WX    TMP DP  RH WIND       PRES   REMARKS
MILWAUKEE      PTCLDY    71  61  70 S5        29.99S
WAUKESHA       CLEAR     66  59  77 CALM      30.01S
MILWAUKEE/TIMM CLEAR     63  57  82 CALM      30.01R
RACINE         PTCLDY    69  64  84 S3        30.01S
BURLINGTON     CLEAR     55  55 100 CALM      30.00S
KENOSHA        CLEAR     63  61  93 CALM      30.00S
FOND DU LAC    PTCLDY    66  59  78 S3        29.99R
SHEBOYGAN      CLEAR     60  60 100 CALM      30.00R
WEST BEND        N/A     59  59 100 CALM      30.00S
JUNEAU         PTCLDY    65  60  83 SE3       30.01R
$$

LSZ147-162-251200-
LAKE SUPERIOR

STATION/POSITION TIME  TEMP    WIND        PRES    WAVE
                       AIR SEA DIR/SP/G            HT/PER
                 (UTC) (F)     (DEG/KT/KT) (MB)    (FT/S)
W MID LAKE BUOY  1050   60 56  250/ 10/ 12 1011.7R   1
DEVILS ISLAND    1100   64     260/ 12/ 14 1012.7R
PORT WING        1030   66     270/ 11/ 14 1013.5R
SAXON HARBOR     1040   67     140/  2/  2 1012.5R
$$

LMZ867-665-643>646-251200-
LAKE MICHIGAN

STATION/POSITION TIME  TEMP    WIND        PRES    WAVE
                       AIR SEA DIR/SP/G            HT/PER
                 (UTC) (F)     (DEG/KT/KT) (MB)    (FT/S)
S GREEN BAY BUOY 1030   71 70  180/  8/ 10 1014.6R
N MID LAKE BUOY  1050   69 67  190/ 10/ 12 1015.7R   1/ 3
NORTHPORT PIER   1040   68     150/  4/  6 1014.6S
KEWAUNEE LAKESHO 1042   63     180/  6/  6 1014.5R
SHEBOYGAN LAKESH 1100   68     210/  3/  3 1015.3R
PORT WASHINGTON  1030   65     280/  2/  2 1016.3S
ATWATER BUOY     1009   66 64  160/  4/  4 1015.7S
MILWAUKEE LAKESH 1050   68     150/  5/  5   N/A
S MID LAKE BUOY  1050   72 71  160/  8/ 10 1016.1R   1
KENOSHA   LAKESH 1100   70     180/  2/  2 1015.6
$$

TC  - TEMPERATURE IN CELSIUS
VSB - VISIBILITY IN STATUTE MILES
WCI - WIND CHILL INDEX
HX  - HEAT INDEX





USA.gov is the U.S. government's official web portal to all federal, state and local government web resources and services.